Flag for Canada Weather past 2 weeks in Owen Sound, Ontario, Canada

Now
21 °F

Scattered clouds.


Feels Like: 6 °F
Forecast: N/A
Wind: 21 mph from Southwest

Location: Wiarton

Current Time: Mar 6, 2015 at 3:56:01 PM

Latest Report: Mar 6, 2015 at 3:00 PM


Visibility: 15 mi

Pressure: 30.24 "Hg

Humidity: 49%

Dew point: 5 °F

Location of Owen SoundLocation

Historic Weather in Owen Sound — Graph

°F

Owen Sound temperature yesterday

Maximum temperature yesterday: 10 °F (at 12:00 PM)
Minimum temperature yesterday: -4 °F (at 8:00 AM)
Average temperature yesterday: 3 °F

Past Weeks' High & Low Weather Summary

 TemperatureHumidityPressure
High28 °F (Mar 3, 8:00 PM)100% (Mar 3, 6:00 PM)30.73 "Hg (Mar 3, 6:00 PM)
Low-27 °F (Feb 20, 6:00 AM)43% (Feb 26, 2:00 PM)29.52 "Hg (Mar 3, 7:00 PM)
Average8 °F72%30.22 "Hg
* Reported Feb 19 2:00 PM — Mar 6 2:00 PM, Owen Sound, Weather by CustomWeather, © 2015

Note: Actual official high and low records may vary slightly from our data, if they occured in-between our weather recording intervals... More about our weather records

Advertising

Owen Sound weather history for previous 24 hours

 ConditionsComfort  
Time TempWeatherWind HumidityBarometerVisibility
2:00 PM
Fri, Mar 6
19 °FPartly sunny.21 mph58%30.29 "Hg15 mi
1:00 PM19 °FPartly sunny.21 mph58%30.32 "Hg15 mi
12:00 PM16 °FScattered clouds.24 mph62%30.36 "Hg15 mi
11:00 AM16 °FPartly sunny.16 mph62%30.38 "Hg15 mi
10:00 AM14 °FPassing clouds.21 mph62%30.40 "Hg15 mi
9:00 AM7 °FSunny.16 mph72%30.42 "Hg15 mi
8:00 AM0 °FSunny.10 mph84%30.42 "Hg15 mi
7:00 AM0 °FPassing clouds.12 mph84%30.44 "Hg15 mi
6:00 AM0 °FClear.12 mph78%30.44 "Hg15 mi
5:00 AM-2 °FClear.10 mph84%30.44 "Hg15 mi
4:00 AM-2 °FClear.10 mph84%30.44 "Hg15 mi
3:00 AM-2 °FClear.9 mph84%30.45 "Hg15 mi
2:00 AM-2 °FClear.8 mph77%30.46 "Hg15 mi
1:00 AM-6 °FClear.7 mph77%30.47 "Hg15 mi
12:00 AM-4 °FPassing clouds.6 mph84%30.48 "Hg15 mi
11:00 PM
Thu, Mar 5
0 °FClear.9 mph84%30.49 "Hg15 mi
10:00 PM0 °FClear.8 mph84%30.49 "Hg15 mi
9:00 PM1 °FClear.9 mph78%30.48 "Hg15 mi
8:00 PM0 °FClear.7 mph78%30.47 "Hg15 mi
7:00 PM3 °FClear.3 mph72%30.46 "Hg15 mi
6:00 PM7 °FPassing clouds.8 mph66%30.44 "Hg15 mi
5:00 PM9 °FPassing clouds.10 mph61%30.42 "Hg15 mi
4:00 PM10 °FScattered clouds.9 mph56%30.41 "Hg15 mi
3:00 PM10 °FScattered clouds.9 mph56%30.40 "Hg15 mi
Weather by CustomWeather, © 2015

See weather overviewHow to use our weather pages